Погода Мотохово

Поиск расширенной информации на нашем сайте:

Полезная информация:

Новости сайта



02.01.2020
Опубликован Долгосрочный прогноз погоды по городам России и ближнего зарубежья на январь 2020 года.
Карты: Прогноз на январь и февраль 2020 года, Сравнение прогнозируемой аномалии приземной температуры воздуха на январь 2020 года по разным моделям.




Погода Мотохово - сегодня

Время (UTC), дата Ветер
(°,м/с) 
Видим.   Явления Облачность Т
(°С)
Тd
(°С)
f(%) Тe
(°С)
Pmin
(гПа)
dP
(гПа)
Po
(мм)
O2
(г/м3)
Тmin Tmax R s Состояние
почвы
12 29.11.20 060 (СВ) 20000 м    6/0 средняя 
[Ac trans]
-1.1 -3.7 82 -3  1030  -1.3  770  312           
15 29.11.20 080 (В) 20000 м  {снег}  10/10 600 м 
[Sc]
-1.2 -3.5 84 -3  1029.1  -0.9  769  312      0.0     
18 29.11.20 090 (В) 18000 м  {снег}  10/10 600 м 
[Sc]
-0.9 -2.8 87 -2  1028.2  -0.9  769  311    -0.9  0.0     
21 29.11.20 080 (В) 4000 м  слаб. снег  10/10 300 м 
[Ns]
-0.9 -2.2 91 -2  1026.8  -1.4  768  311           
00 30.11.20 090 (В) 6000 м  слаб. снег  10/10 400 м 
[Ns]
+0.1 -1 92 -2  1025.4  -1.4  767  309           
03 30.11.20 120 (ЮВ) 20000 м  {снег}  10/10 570 м 
[Sc]
+1.2 +0.1 92 1024.3  -1  766  307  -1.2    0.9     
06 30.11.20 130 (ЮВ) 9000 м  слаб. дождь{снег}  10/10 500 м 
[Sc]
+1.8 +0.7 92 1024  -0.3  766  306  -1    0.9     
09 30.11.20 150 (ЮВ) 20000 м  {дождь}  9/0 средняя 
[Ac trans]
+1.9 +1.1 94 1023.7  -0.3  765  306           
12 30.11.20 140 (ЮВ) 20000 м  {дождь}  9/4 600 м средняя 
[Sc|Ac trans]
+1.9 +0.6 91 +1  1022.4  -1.3  764  306           
15 30.11.20 200 (Ю) 8000 м  слаб. дождь  10/10 330 м 
[Ns]
+0.5 -0.1 96 1021.5  -0.9  764  307      0.3     
18 30.11.20 160 (Ю) 20000 м  в посл. час снег{дождь}  10/10 1110 м 
[Sc]
+0.2 -0.2 97 -2  1021  -0.5  763  307    +2.5     
21 30.11.20 160 (Ю) 5000 м  слаб. снег  10/10 420 м 
[Ns]
-0.5 -1.1 96 -2  1020.9  -0.1  763  308           
00 01.12.20 160 (Ю) 20000 м  {снег}  10/10 630 м 
[Sc]
-0.6 -1.8 92 -2  1020.9  763  308           
03 01.12.20 160 (Ю) 8000 м  слаб. снег [диам. отлож. мокр. снега 8 мм]  10/0 средняя 
[As op]
-0.5 -1.4 94 -2  1020.6  -0.3  763  308  -0.6       
06 01.12.20 190 (Ю) 16000 м  в посл. час снег  10/0 средняя 
[Ac und]
+0.1 -0.8 94 -2  1021.9  1.2  764  308  -0.6    0.5  равномерный
сухой снег
100% 
09 01.12.20 190 (Ю) 20000 м    10/0 средняя 
[As op]
+0.4 -0.6 93 -2  1024  2.1  765  308           
12 01.12.20 220 (ЮЗ) 4000 м  слаб. снег  10/10 480 м 
[Sc]
+0.6 -0.5 92 -1  1025.8  1.8  767  308           
15 01.12.20 200 (Ю) 8000 м  слаб. морось{снег}  10/10 420 м 
[St]
+0.3 -0.5 94 -2  1027.5  1.7  768  309      0.6     
21 01.12.20 190 (Ю) 19000 м    10/10 360 м 
[St]
+0.4 -0.6 93 -1  1030  770  310           
00 02.12.20 210 (ЮЗ) 4000 м  дымка  10/10 180 м 
[St]
+0.3 -0.1 97 1031.1  1.1  771  310           
03 02.12.20 210 (ЮЗ) 9000 м  дымка  10/10 330 м 
[St]
+0.5 -0.1 96 1031.7  0.6  771  310  +0.2    0.1     
06 02.12.20 200 (Ю) 12000 м    10/10 270 м 
[St]
+0.6 -0.4 93 1032.4  0.7  772  310  +0.2      равномерный
мокрый или
старый снег
100% 
09 02.12.20 210 (ЮЗ) 10 км    10/10 300 м 
[St]
+0.5 -0.5 93 -2  1033.3  0.9  772  311           
12 02.12.20 220 (ЮЗ) 10 км    10/10 270 м 
[St]
+0 -0.9 94 -2  1033.2  -0.1  772  311           
15 02.12.20 200 (Ю) 16000 м    10/10 240 м 
[St]
-0.8 -1.6 94 -2  1032.7  -0.5  772  312           
Время (UTC), дата Ветер
(°,м/с) 
Видим.   Явления Облачность Т
(°С)
Тd
(°С)
f(%) Тe
(°С)
Pmin
(гПа)
dP
(гПа)
Po
(мм)
O2
(г/м3)
Тmin Tmax R s Состояние
почвы

Для получения пояснительной информации подведите курсор к названию столбца.

ПОГОДА Мотохово - архив

Всё, что Вы хотите узнать о погоде Мотохово - удобно и подробно!

Выберите нужную дату (начиная с 1 января 2019* года) и нажмите кнопку "Найти".
Будут отображены архивные сводки погоды по пункту Мотохово, начиная с указанной даты.


Отображать данные в формате CSV (для использования в таблицах Excel)


Внимание! Наш архив погоды предназначен исключительно для личного некоммерческого использования в познавательных целях. Если Вам необходимы официальные справки о состоянии погоды (для производственных, юридических, коммерческих и т.п. целей), обращайтесь в органы Росгидромета.

*Примечание: данная дата относится к архиву по метеостанциям СССР (Россия, СНГ, Балтия).
Архив по метеостанциям Зарубежной Европы и Азии (кроме Китая) хранится 10 дней, по другим регионам земного шара (Китай, Африка, Америка, Австралия, Океания) - 1 день.

Мотохово - район местоположения метеостанции


Название, широта, долгота, высота метеостанции:
Мотохово 59.5°ш. 32.4°д. 34 м над ур. моря [Российская Федерация]

Дополнительная информация

В oтличие oт бoльшинства пoгoдных сайтoв мы публикуем пoдрoбную метеoинфoрмацию в детальнoм прoфессиoнальнoм фoрмате.

Характеристики температуры и влажнoсти вoздуха измеряются на высoте 2 м в тени вдали oт зданий и деревьев.
Скoрoсть ветра измеряется на высoте 10 м (на урoвне рoста челoвека скoрoсть ветра ниже в 1.5-2 раза). Если метеoстанция нахoдится в гoрoде или в лесу, тo скoрoсть ветра занижена на 2-4 м/с пo сравнению с oткрытым местoм. Скoрoсть ветра над акватoриями крупных рек и oзёр, а также на вершинах хoлмoв на 2-5 м/с выше, чем в oбычных услoвиях.
Атмoсфернoе давление в разных тoчках местнoсти мoжет значительнo oтличаться oт давления на метеoстанции, в зависимoсти oт услoвий рельефа (при пoдъёме на 10 м давление пoнижается примернo на 1 мм рт.ст.).